{"data":{"norad_id":69460,"intl_designator":"2026-127T","name":"STARLINK-37384","alt_names":[],"object_type":"PAYLOAD","status":"ACTIVE","operator":null,"country":"US","launch_date":"2026-06-08","launch_site_code":"AFETR","launch_vehicle":null,"mission":null,"orbit_class":"UNKNOWN","rcs_meters":null,"size_class":null,"mass_kg":null,"dimensions":null,"purposes":["comms"],"wikipedia_slug":null,"has_3d_model":false,"image_url":null,"decayed_at":null,"tle_current":{"epoch":"2026-09-20T04:59:29.858208Z","epoch_age_seconds":50705,"freshness":"FRESH","line1":"1 69460U 26127T   26263.20798447  .00015438  00000+0  46700-3 0  9993","line2":"2 69460  53.1576 167.3293 0001107  77.7178 282.3949 15.34406283 16146","mean_motion":15.34406283,"eccentricity":0.0001107,"inclination_deg":53.1576,"raan_deg":167.3293,"arg_perigee_deg":77.7178,"mean_anomaly_deg":282.3949,"bstar":0.000467,"rev_number":1614,"period_min":93.847373798847,"perigee_km":461.9272869234,"apogee_km":463.44184481809,"semimajor_km":6840.8215658707,"source":"CELESTRAK","updated_at":"2026-09-20T09:00:44.202283Z"}}}